Retour au catalogue

STARLINK-6330

ActifCommunicationsVLEO
NORAD 57239·PAYLOAD·🇺🇸 United States

Lancé Jul 7, 2023 depuis Vandenberg Space Force Base

Loading…

Prochains Passages (prochaines 24 heures)

TLE

FraisSource: CelesTrak SupGP

Époque: Sep 14, 2026, 21:10 UTC

1 57239C 23094X   26257.88243056  .00051043  00000+0  18486-2 0  2570
2 57239  43.0020  41.9851 0001469 269.2744  74.6627 15.27557099    12

Suivez STARLINK-6330 en temps réel avec AllMySat

Download on the App Store